1998-067XJ

Last updated on Thu Dec 04 2025 00:02:12 GMT+0000 (Coordinated Universal Time)

1 65730U 98067XJ 25336.82362581 .06330363 11931-4 22859-2 0 9996 2 65730 51.6061 180.4655 0010114 256.3912 103.5981 16.23931094 11687

Satellite not in orbit